sat.trackr.live / text

‹ back to catalog

STARLINK-34458

NORAD 64360 · 2025-126S

PAYLOAD ACTIVE UNKNOWN

§ Identity

Operator
Country
US
Launch date
2025-06-13
Launch site
AFWTR
Launch vehicle
Mass (kg)
RCS (m²)

Purposes: comms

External: N2YO · Heavens-Above · Gunter

§ Orbital elements

Epoch: 2026-09-20T22:00:03.000096Z

Period
94.09 min
Inclination
70.0002°
Eccentricity
0.0003568
Mean motion
15.30390028 rev/d
Perigee alt
472.2 km
Apogee alt
477.1 km
Semi-major
6,852.8 km
B*
2.0493e-3
RAAN
259.8014°
Arg perigee
259.5462°
Mean anomaly
167.8419°
Rev number
577

§ Raw data

STARLINK-344581 64360U 25126S   26263.91670139  .00060763  00000+0  20493-2 0  99912 64360  70.0002 259.8014 0003568 259.5462 167.8419 15.30390028  5770

JSON: /api/v1/satellites/64360 · /tle

For live sub-satellite position, see the globe view (requires WebGL).

§ Visibility from observer

Set your observer location to see the next 7 days of passes ≥ 10°. The values pass through the URL so the page stays shareable.

No JS? Fill the form by hand. The geolocation button needs JavaScript.